| time (UTC) | temp F | wind direction | speed MPH | gust MPH | rain 1hr in | rain 24hr in | rain mn in | humidity % | barometer mb |
| 20260504060203 | 46 | 143 | 2.0 | 5.0 | 0.00 | 0.00 | 0.00 | 72 | 971.3 |
| 20260504050203 | 46 | 148 | 3.0 | 5.0 | 0.00 | 0.00 | 0.00 | 71 | 971.4 |
| 20260504045703 | 46 | 146 | 3.0 | 3.0 | 0.00 | 0.00 | 0.00 | 70 | 971.4 |
| 20260504045203 | 46 | 146 | 3.0 | 3.0 | 0.00 | 0.00 | 0.00 | 72 | 971.3 |
| 20260504044703 | 46 | 154 | 3.0 | 3.0 | 0.00 | 0.00 | 0.00 | 68 | 971.3 |
| 20260504044203 | 46 | 143 | 2.0 | 3.0 | 0.00 | 0.00 | 0.00 | 70 | 971.4 |
| 20260504043203 | 46 | 150 | 0.0 | 2.0 | 0.00 | 0.00 | 0.00 | 64 | 971.3 |
| 20260504042704 | 46 | 149 | 0.0 | 2.0 | 0.00 | 0.00 | 0.00 | 64 | 971.3 |
| 20260504042204 | 46 | 333 | 1.0 | 2.0 | 0.00 | 0.00 | 0.00 | 64 | 971.2 |
| 20260504041705 | 46 | 143 | 0.0 | 2.0 | 0.00 | 0.00 | 0.00 | 61 | 971.3 |
| 20260504041203 | 46 | 178 | 2.0 | 5.0 | 0.00 | 0.00 | 0.00 | 62 | 971.3 |
| 20260504040704 | 46 | 152 | 5.0 | 5.0 | 0.00 | 0.00 | 0.00 | 57 | 971.2 |
| 20260504040203 | 45 | 152 | 3.0 | 5.0 | 0.00 | 0.00 | 0.00 | 60 | 971.3 |
| 20260504035203 | 45 | 151 | 5.0 | 7.0 | 0.00 | 0.00 | 0.00 | 68 | 971.3 |
| 20260504034703 | 45 | 148 | 3.0 | 5.0 | 0.00 | 0.00 | 0.00 | 70 | 971.3 |
| 20260504033704 | 45 | 147 | 3.0 | 6.0 | 0.00 | 0.00 | 0.00 | 68 | 971.5 |
| 20260504033203 | 45 | 139 | 2.0 | 3.0 | 0.00 | 0.00 | 0.00 | 68 | 971.4 |
| 20260504032703 | 45 | 143 | 2.0 | 2.0 | 0.00 | 0.00 | 0.00 | 67 | 971.4 |
| 20260504032203 | 45 | 138 | 2.0 | 5.0 | 0.00 | 0.00 | 0.00 | 68 | 971.3 |
| 20260504031703 | 44 | 149 | 3.0 | 5.0 | 0.00 | 0.00 | 0.00 | 68 | 971.3 |
| 20260504030704 | 44 | 145 | 2.0 | 3.0 | 0.00 | 0.00 | 0.00 | 66 | 971.3 |
| 20260504025704 | 44 | 140 | 2.0 | 2.0 | 0.00 | 0.00 | 0.00 | 68 | 971.4 |
| 20260504025203 | 44 | 159 | 2.0 | 2.0 | 0.00 | 0.00 | 0.00 | 67 | 971.4 |
| 20260504024203 | 45 | 140 | 1.0 | 2.0 | 0.00 | 0.00 | 0.00 | 68 | 971.1 |
| 20260504023705 | 45 | 144 | 2.0 | 2.0 | 0.00 | 0.00 | 0.00 | 66 | 971.1 |
| 20260504023203 | 45 | 129 | 1.0 | 2.0 | 0.00 | 0.00 | 0.00 | 66 | 971.2 |
| 20260504022704 | 45 | 139 | 1.0 | 2.0 | 0.00 | 0.00 | 0.00 | 65 | 971.2 |
| 20260504022203 | 45 | 149 | 2.0 | 2.0 | 0.00 | 0.00 | 0.00 | 66 | 971.2 |
| 20260504021204 | 45 | 140 | 1.0 | 2.0 | 0.00 | 0.00 | 0.00 | 62 | 971.0 |
| 20260504020703 | 45 | 147 | 2.0 | 3.0 | 0.00 | 0.00 | 0.00 | 63 | 971.0 |
| 20260504015704 | 45 | 147 | 2.0 | 3.0 | 0.00 | 0.00 | 0.00 | 60 | 971.0 |
| 20260504015204 | 45 | 154 | 2.0 | 3.0 | 0.00 | 0.00 | 0.00 | 61 | 971.1 |
| 20260504014703 | 46 | 115 | 1.0 | 2.0 | 0.00 | 0.00 | 0.00 | 60 | 971.1 |
| 20260504014203 | 46 | 159 | 2.0 | 2.0 | 0.00 | 0.00 | 0.00 | 59 | 971.1 |
| 20260504013203 | 47 | 141 | 2.0 | 3.0 | 0.00 | 0.00 | 0.00 | 60 | 970.9 |
| 20260504011704 | 51 | 136 | 2.0 | 2.0 | 0.00 | 0.00 | 0.00 | 52 | 970.7 |
| 20260504011203 | 52 | 173 | 2.0 | 5.0 | 0.00 | 0.00 | 0.00 | 41 | 970.5 |
| 20260504010204 | 52 | 157 | 5.0 | 6.0 | 0.00 | 0.00 | 0.00 | 40 | 970.4 |
| 20260504005703 | 52 | 155 | 3.0 | 5.0 | 0.00 | 0.00 | 0.00 | 42 | 970.4 |
| 20260504005203 | 52 | 149 | 3.0 | 6.0 | 0.00 | 0.00 | 0.00 | 42 | 970.4 |
| 20260504004704 | 53 | 160 | 3.0 | 5.0 | 0.00 | 0.00 | 0.00 | 40 | 970.4 |
| 20260504004203 | 53 | 165 | 3.0 | 5.0 | 0.00 | 0.00 | 0.00 | 40 | 970.4 |
| 20260504003703 | 54 | 168 | 3.0 | 5.0 | 0.00 | 0.00 | 0.00 | 39 | 970.4 |
| 20260504002704 | 55 | 161 | 3.0 | 5.0 | 0.00 | 0.00 | 0.00 | 36 | 970.2 |
| 20260504002203 | 55 | 157 | 3.0 | 5.0 | 0.00 | 0.00 | 0.00 | 36 | 970.2 |
| 20260504001703 | 56 | 158 | 2.0 | 3.0 | 0.00 | 0.00 | 0.00 | 34 | 970.1 |
| 20260504001204 | 56 | 154 | 2.0 | 3.0 | 0.00 | 0.00 | 0.00 | 33 | 970.2 |
| 20260504000703 | 57 | 162 | 2.0 | 3.0 | 0.00 | 0.00 | 0.00 | 31 | 970.2 |
| 20260504000204 | 57 | 163 | 2.0 | 3.0 | 0.00 | 0.00 | 0.00 | 30 | 970.2 |
| 20260503235203 | 58 | 174 | 2.0 | 3.0 | 0.00 | 0.00 | 0.00 | 32 | 970.1 |
| 20260503234704 | 59 | 167 | 2.0 | 2.0 | 0.00 | 0.00 | 0.00 | 35 | 970.2 |
| 20260503234203 | 60 | 173 | 2.0 | 3.0 | 0.00 | 0.00 | 0.00 | 33 | 970.2 |
| 20260503233703 | 62 | 188 | 2.0 | 2.0 | 0.00 | 0.00 | 0.00 | 29 | 970.2 |
| 20260503233203 | 63 | 194 | 0.0 | 1.0 | 0.00 | 0.00 | 0.00 | 30 | 970.1 |
| 20260503232703 | 64 | 177 | 1.0 | 2.0 | 0.00 | 0.00 | 0.00 | 29 | 970.1 |
| 20260503231703 | 64 | 203 | 1.0 | 2.0 | 0.00 | 0.00 | 0.00 | 28 | 970.0 |
| 20260503231203 | 63 | 200 | 1.0 | 2.0 | 0.00 | 0.00 | 0.00 | 30 | 969.9 |
| 20260503230703 | 63 | 156 | 1.0 | 2.0 | 0.00 | 0.00 | 0.00 | 27 | 969.9 |
| 20260503230203 | 63 | 302 | 2.0 | 3.0 | 0.00 | 0.00 | 0.00 | 28 | 969.8 |
| 20260503225703 | 64 | 223 | 1.0 | 2.0 | 0.00 | 0.00 | 0.00 | 26 | 969.8 |
| 20260503225203 | 64 | 146 | 1.0 | 3.0 | 0.00 | 0.00 | 0.00 | 25 | 969.8 |
| 20260503224703 | 64 | 246 | 2.0 | 5.0 | 0.00 | 0.00 | 0.00 | 28 | 969.7 |
| 20260503224203 | 64 | 307 | 1.0 | 3.0 | 0.00 | 0.00 | 0.00 | 27 | 969.7 |
| 20260503223703 | 64 | 176 | 2.0 | 3.0 | 0.00 | 0.00 | 0.00 | 25 | 969.7 |
| 20260503223203 | 64 | 299 | 1.0 | 3.0 | 0.00 | 0.00 | 0.00 | 26 | 969.7 |
| 20260503222704 | 64 | 313 | 0.0 | 3.0 | 0.00 | 0.00 | 0.00 | 25 | 969.6 |
| 20260503222203 | 63 | 201 | 1.0 | 3.0 | 0.00 | 0.00 | 0.00 | 25 | 969.6 |
| 20260503221703 | 63 | 151 | 2.0 | 3.0 | 0.00 | 0.00 | 0.00 | 26 | 969.6 |
| 20260503221203 | 63 | 195 | 1.0 | 3.0 | 0.00 | 0.00 | 0.00 | 25 | 969.7 |
| 20260503215703 | 62 | 231 | 1.0 | 3.0 | 0.00 | 0.00 | 0.00 | 25 | 969.8 |
| 20260503215203 | 62 | 168 | 1.0 | 6.0 | 0.00 | 0.00 | 0.00 | 25 | 969.8 |
| 20260503214703 | 62 | 298 | 1.0 | 6.0 | 0.00 | 0.00 | 0.00 | 26 | 969.9 |
| 20260503214203 | 63 | 286 | 2.0 | 5.0 | 0.00 | 0.00 | 0.00 | 26 | 969.9 |
| 20260503213704 | 62 | 224 | 1.0 | 2.0 | 0.00 | 0.00 | 0.00 | 26 | 969.9 |
| 20260503213203 | 62 | 132 | 2.0 | 6.0 | 0.00 | 0.00 | 0.00 | 26 | 970.0 |
| 20260503212704 | 63 | 298 | 1.0 | 3.0 | 0.00 | 0.00 | 0.00 | 26 | 970.0 |
| 20260503212203 | 63 | 344 | 1.0 | 5.0 | 0.00 | 0.00 | 0.00 | 29 | 970.0 |
| 20260503211703 | 62 | 305 | 2.0 | 5.0 | 0.00 | 0.00 | 0.00 | 27 | 970.0 |
| 20260503211203 | 62 | 299 | 3.0 | 5.0 | 0.00 | 0.00 | 0.00 | 28 | 970.0 |
| 20260503210704 | 62 | 356 | 2.0 | 5.0 | 0.00 | 0.00 | 0.00 | 26 | 969.9 |
| 20260503210203 | 62 | 204 | 1.0 | 3.0 | 0.00 | 0.00 | 0.00 | 26 | 969.9 |
| 20260503205703 | 62 | 284 | 1.0 | 3.0 | 0.00 | 0.00 | 0.00 | 26 | 970.1 |
| 20260503205204 | 61 | 188 | 2.0 | 3.0 | 0.00 | 0.00 | 0.00 | 26 | 970.2 |
| 20260503204704 | 61 | 184 | 1.0 | 6.0 | 0.00 | 0.00 | 0.00 | 25 | 970.2 |
| 20260503204204 | 61 | 292 | 2.0 | 5.0 | 0.00 | 0.00 | 0.00 | 26 | 970.2 |
| 20260503203703 | 61 | 330 | 1.0 | 2.0 | 0.00 | 0.00 | 0.00 | 27 | 970.3 |
| 20260503203204 | 61 | 267 | 3.0 | 5.0 | 0.00 | 0.00 | 0.00 | 26 | 970.3 |
| 20260503202203 | 62 | 346 | 3.0 | 6.0 | 0.00 | 0.00 | 0.00 | 27 | 970.5 |
| 20260503201203 | 62 | 353 | 1.0 | 3.0 | 0.00 | 0.00 | 0.00 | 26 | 970.6 |
| 20260503195204 | 62 | 158 | 2.0 | 6.0 | 0.00 | 0.00 | 0.00 | 28 | 970.8 |
| 20260503194703 | 61 | 332 | 2.0 | 7.0 | 0.00 | 0.00 | 0.00 | 29 | 971.0 |
| 20260503194204 | 61 | 315 | 3.0 | 9.0 | 0.00 | 0.00 | 0.00 | 30 | 971.0 |
| 20260503193705 | 61 | 289 | 2.0 | 10.0 | 0.00 | 0.00 | 0.00 | 28 | 970.8 |
| 20260503192704 | 60 | 320 | 3.0 | 7.0 | 0.00 | 0.00 | 0.00 | 30 | 970.9 |
| 20260503192203 | 60 | 320 | 2.0 | 6.0 | 0.00 | 0.00 | 0.00 | 28 | 970.9 |
| 20260503191204 | 61 | 333 | 2.0 | 7.0 | 0.00 | 0.00 | 0.00 | 28 | 971.0 |
| 20260503190703 | 60 | 339 | 3.0 | 12.0 | 0.00 | 0.00 | 0.00 | 29 | 971.3 |
| 20260503190203 | 60 | 200 | 3.0 | 6.0 | 0.00 | 0.00 | 0.00 | 28 | 971.3 |
| 20260503185703 | 60 | 279 | 1.0 | 7.0 | 0.00 | 0.00 | 0.00 | 30 | 971.5 |
| 20260503185203 | 59 | 314 | 2.0 | 5.0 | 0.00 | 0.00 | 0.00 | 29 | 971.5 |
| 20260503184703 | 59 | 129 | 2.0 | 9.0 | 0.00 | 0.00 | 0.00 | 29 | 971.6 |
| 20260503183703 | 59 | 284 | 2.0 | 7.0 | 0.00 | 0.00 | 0.00 | 31 | 971.7 |
| 20260503183203 | 60 | 219 | 2.0 | 6.0 | 0.00 | 0.00 | 0.00 | 30 | 971.7 |
| 20260503182705 | 60 | 32 | 2.0 | 5.0 | 0.00 | 0.00 | 0.00 | 31 | 971.9 |
| 20260503182203 | 59 | 199 | 1.0 | 3.0 | 0.00 | 0.00 | 0.00 | 31 | 971.8 |
| 20260503181703 | 59 | 281 | 1.0 | 6.0 | 0.00 | 0.00 | 0.00 | 29 | 971.8 |
| 20260503180703 | 58 | 294 | 2.0 | 5.0 | 0.00 | 0.00 | 0.00 | 33 | 971.9 |
| 20260503180203 | 58 | 112 | 2.0 | 3.0 | 0.00 | 0.00 | 0.00 | 32 | 971.8 |
| 20260503175703 | 59 | 84 | 2.0 | 3.0 | 0.00 | 0.00 | 0.00 | 31 | 971.9 |
| 20260503175203 | 60 | 75 | 2.0 | 5.0 | 0.00 | 0.00 | 0.00 | 30 | 971.8 |
| 20260503174703 | 59 | 215 | 2.0 | 5.0 | 0.00 | 0.00 | 0.00 | 34 | 971.8 |
| 20260503174204 | 58 | 257 | 2.0 | 6.0 | 0.00 | 0.00 | 0.00 | 34 | 971.8 |
| 20260503173703 | 58 | 319 | 2.0 | 6.0 | 0.00 | 0.00 | 0.00 | 32 | 972.0 |
| 20260503172703 | 58 | 0 | 2.0 | 5.0 | 0.00 | 0.00 | 0.00 | 30 | 972.3 |
| 20260503172203 | 57 | 268 | 2.0 | 5.0 | 0.00 | 0.00 | 0.00 | 35 | 972.3 |
| 20260503171704 | 56 | 264 | 2.0 | 7.0 | 0.00 | 0.00 | 0.00 | 37 | 972.2 |
| 20260503171204 | 56 | 316 | 2.0 | 7.0 | 0.00 | 0.00 | 0.00 | 35 | 972.5 |
| 20260503170703 | 55 | 17 | 2.0 | 7.0 | 0.00 | 0.00 | 0.00 | 33 | 972.5 |
| 20260503170203 | 55 | 288 | 2.0 | 7.0 | 0.00 | 0.00 | 0.00 | 34 | 972.6 |
| 20260503160204 | 54 | 315 | 2.0 | 6.0 | 0.00 | 0.00 | 0.00 | 39 | 973.0 |
| 20260503150703 | 52 | 325 | 2.0 | 6.0 | 0.00 | 0.00 | 0.00 | 37 | 973.3 |
| 20260503150203 | 52 | 157 | 1.0 | 5.0 | 0.00 | 0.00 | 0.00 | 39 | 973.5 |
| 20260503140203 | 49 | 265 | 2.0 | 3.0 | 0.00 | 0.00 | 0.00 | 42 | 973.1 |
| 20260503130704 | 45 | 330 | 3.0 | 8.0 | 0.00 | 0.00 | 0.00 | 50 | 973.4 |
| 20260503120203 | 42 | 330 | 2.0 | 3.0 | 0.00 | 0.00 | 0.00 | 58 | 973.4 |
| 20260503110703 | 39 | 318 | 2.0 | 3.0 | 0.00 | 0.00 | 0.00 | 64 | 972.9 |
| 20260503110203 | 39 | 317 | 1.0 | 3.0 | 0.00 | 0.00 | 0.00 | 64 | 972.8 |
| 20260503100203 | 40 | 316 | 2.0 | 3.0 | 0.00 | 0.00 | 0.00 | 68 | 971.8 |
| 20260503090204 | 40 | 16 | 0.0 | 1.0 | 0.00 | 0.00 | 0.00 | 70 | 971.4 |
| 20260503080704 | 41 | 302 | 1.0 | 2.0 | 0.00 | 0.00 | 0.00 | 67 | 971.2 |
| 20260503080203 | 41 | 326 | 1.0 | 2.0 | 0.00 | 0.00 | 0.00 | 68 | 971.1 |
| 20260503072703 | 41 | 316 | 0.0 | 2.0 | 0.00 | 0.00 | 0.00 | 68 | 970.9 |
| 20260503072203 | 41 | 321 | 0.0 | 1.0 | 0.00 | 0.00 | 0.00 | 67 | 970.9 |
| 20260503071704 | 41 | 316 | 0.0 | 1.0 | 0.00 | 0.00 | 0.00 | 67 | 970.8 |
| 20260503071203 | 42 | 348 | 0.0 | 1.0 | 0.00 | 0.00 | 0.00 | 67 | 970.8 |